Toluca Jose Maria, Mexico

1:19 PM CDT on April 28, 2017 (GMT -0500)
Lic Adolfo Lopez Mateos International

Weather History for MMTO - November, 2012

Change the Weather History Date:

Sunday, November 18, 2012

  Actual Average Record
Temperature  
Mean Temperature 52 °F -  
Max Temperature 71 °F 67 °F 75 °F (2003)
Min Temperature 33 °F 35 °F 28 °F (2002)
Degree Days  
Heating Degree Days 13    
Growing Degree Days 2 (Base 50)    
Moisture  
Dew Point 35 °F    
Average Humidity 70    
Maximum Humidity 93    
Minimum Humidity 16    
Precipitation  
Precipitation 0.00 in - - ()
Sea Level Pressure  
Sea Level Pressure 30.35 in    
Wind  
Wind Speed 2 mph ()    
Max Wind Speed 14 mph    
Max Gust Speed -    
Visibility 4.5 miles    
Events Fog    
Averages and records for this station are not official NWS values.
T = Trace of Precipitation, MM = Missing Value Source: Averaged Metar Reports

Daily Weather History Graph

Daily Weather History Graph

Search for Another Location

Airport or City:

Trip Planner

Search our weather history database for the weather conditions in past years. The results will help you decide how hot, cold, wet, or windy it might be!

Date:

Astronomy

Nov. 18, 2012 Rise Set
Actual Time 6:48 AM CST 5:58 PM CST
Civil Twilight 6:24 AM CST 6:22 PM CST
Nautical Twilight 5:58 AM CST 6:48 PM CST
Astronomical Twilight 5:31 AM CST 7:15 PM CST
Moon 11:24 AM CST (11/18) 11:08 PM CST (11/18)
Length of Visible Light 11h 57m
Length of Day
11h 10m
Waxing Crescent, 30% of the Moon is Illuminated
Nov 18
Waxing Crescent
Nov 20
First Quarter
Nov 28
Full
Dec 6
Last Quarter
Dec 13
New

Hourly Weather History & Observations

Time (CST) Temp. Windchill Dew Point Humidity Pressure Visibility Wind Dir Wind Speed Gust Speed Precip Events Conditions
12:45 AM 41.0 °F - 39.2 °F 93% 30.47 in 8.0 mi Calm Calm - N/A   Clear
1:45 AM 41.0 °F 39.0 °F 37.4 °F 87% 30.47 in 8.0 mi North 3.5 mph - N/A   Clear
2:45 AM 39.2 °F - 35.6 °F 87% 30.03 in 8.0 mi Calm Calm - N/A   Clear
3:45 AM 33.8 °F - 32.0 °F 93% 30.45 in 0.2 mi Calm Calm - N/A   Clear
4:45 AM 35.6 °F 32.8 °F 33.8 °F 93% 30.44 in 1.0 mi South 3.5 mph - N/A Fog Fog
5:30 AM 35.6 °F 29.9 °F 33.8 °F 93% 30.45 in 0.5 mi NNW 6.9 mph - N/A Fog Fog
5:45 AM 37.4 °F 34.9 °F 33.8 °F 87% 30.09 in 0.5 mi NW 3.5 mph - N/A Fog Fog
6:07 AM 37.4 °F - 35.6 °F 93% 30.46 in 0.0 mi Calm Calm - N/A Fog Fog
6:45 AM 35.6 °F - 33.8 °F 93% 30.47 in 0.1 mi Calm Calm - N/A Fog Fog
7:30 AM 37.4 °F - 35.6 °F 93% 30.49 in 0.1 mi Calm Calm - N/A Fog Fog
7:45 AM 37.4 °F - 35.6 °F 93% 30.49 in 0.1 mi Calm Calm - N/A Fog Fog
7:51 AM 37.4 °F - 35.6 °F 93% 30.49 in 0.1 mi Calm Calm - N/A Fog Fog
8:30 AM 41.0 °F - 39.2 °F 93% 30.51 in 0.1 mi Calm Calm - N/A Fog Fog
8:45 AM 41.0 °F - 39.2 °F 93% 30.17 in 0.1 mi Calm Calm - N/A Fog Fog
9:30 AM 42.8 °F - 41.0 °F 93% 30.52 in 0.2 mi Calm Calm - N/A Fog Fog
9:45 AM 42.8 °F - 41.0 °F 93% 30.51 in 0.2 mi Calm Calm - N/A Fog Fog
10:21 AM 48.2 °F - 44.6 °F 87% 30.50 in 2.0 mi Calm Calm - N/A   Clear
10:45 AM 50.0 °F - 44.6 °F 82% 30.50 in 3.0 mi West 3.5 mph - N/A   Haze
11:45 AM 62.6 °F - 37.4 °F 39% 30.03 in 5.0 mi Calm Calm - N/A   Clear
12:45 PM 68.0 °F - 33.8 °F 28% 30.44 in 8.0 mi SE 4.6 mph - N/A   Clear
1:45 PM 69.8 °F - 24.8 °F 18% 30.40 in 10.0 mi WSW 9.2 mph - N/A   Clear
2:45 PM 71.6 °F - 23.0 °F 16% 29.85 in 10.0 mi ENE 10.4 mph - N/A   Clear
3:45 PM 69.8 °F - 21.2 °F 16% 30.38 in 10.0 mi ENE 9.2 mph - N/A   Clear
4:45 PM 68.0 °F - 24.8 °F 20% 30.38 in 10.0 mi NE 13.8 mph - N/A   Clear
5:45 PM 62.6 °F - 33.8 °F 34% 29.94 in 8.0 mi NE 9.2 mph - N/A   Clear
6:45 PM - - - N/A% - 8.0 mi NE 6.9 mph - N/A   Clear
7:45 PM 55.4 °F - 35.6 °F 47% 30.44 in 8.0 mi East 8.1 mph - N/A   Clear
8:45 PM 53.6 °F - 35.6 °F 51% 30.07 in 8.0 mi NE 4.6 mph - N/A   Clear
9:45 PM 51.8 °F - 37.4 °F 58% 30.49 in 8.0 mi Calm Calm - N/A   Clear
10:45 PM 48.2 °F - 37.4 °F 66% 30.48 in 8.0 mi Calm Calm - N/A   Clear
11:45 PM 46.4 °F - 35.6 °F 66% 29.99 in 7.0 mi Calm Calm - N/A   Clear